Time,TemperatureF,DewpointF,PressureIn,WindDirection,WindDirectionDegrees,WindSpeedMPH,WindSpeedGustMPH,Humidity,HourlyPrecipIn,Conditions,Clouds,dailyrainin,SolarRadiationWatts/m^2,SoftwareType,DateUTC
2013-03-13 00:22:00,54.0,41.0,-100.00,South,179,4.0,7.0,62,0.00,,,0.00,0.000000,,2013-03-13 10:22:00,
2013-03-13 00:32:00,54.0,41.0,-100.00,South,179,4.0,7.0,62,0.00,,,0.00,0.000000,,2013-03-13 10:32:00,
2013-03-13 00:42:00,54.0,41.0,-100.00,South,179,4.0,7.0,62,0.00,,,0.00,0.000000,,2013-03-13 10:42:00,
2013-03-13 00:52:00,54.0,41.0,-100.00,South,179,4.0,7.0,62,0.00,,,0.00,0.000000,,2013-03-13 10:52:00,
2013-03-13 01:12:00,46.0,39.0,-100.00,ESE,106,4.0,6.0,77,0.00,,,0.00,0.000000,,2013-03-13 11:12:00,
2013-03-13 01:22:00,46.0,39.0,-100.00,ESE,106,4.0,6.0,77,0.00,,,0.00,0.000000,,2013-03-13 11:22:00,
2013-03-13 01:32:00,46.0,39.0,-100.00,ESE,106,4.0,6.0,77,0.00,,,0.00,0.000000,,2013-03-13 11:32:00,
2013-03-13 01:42:00,46.0,39.0,-100.00,ESE,106,4.0,6.0,77,0.00,,,0.00,0.000000,,2013-03-13 11:42:00,
2013-03-13 01:52:00,46.0,39.0,-100.00,ESE,106,4.0,6.0,77,0.00,,,0.00,0.000000,,2013-03-13 11:52:00,
2013-03-13 02:22:00,45.0,39.0,-100.00,ESE,116,5.0,7.0,80,0.00,,,0.00,0.000000,,2013-03-13 12:22:00,
2013-03-13 02:32:00,45.0,39.0,-100.00,ESE,116,5.0,7.0,80,0.00,,,0.00,0.000000,,2013-03-13 12:32:00,
2013-03-13 02:42:00,45.0,39.0,-100.00,ESE,116,5.0,7.0,80,0.00,,,0.00,0.000000,,2013-03-13 12:42:00,
2013-03-13 02:52:00,45.0,39.0,-100.00,ESE,116,5.0,7.0,80,0.00,,,0.00,0.000000,,2013-03-13 12:52:00,
2013-03-13 03:22:00,46.0,41.0,-100.00,ESE,116,5.0,7.0,81,0.00,,,0.00,0.000000,,2013-03-13 13:22:00,
2013-03-13 03:32:00,46.0,41.0,-100.00,ESE,116,5.0,7.0,81,0.00,,,0.00,0.000000,,2013-03-13 13:32:00,
2013-03-13 03:42:00,46.0,41.0,-100.00,ESE,116,5.0,7.0,81,0.00,,,0.00,0.000000,,2013-03-13 13:42:00,
2013-03-13 03:52:00,46.0,41.0,-100.00,ESE,116,5.0,7.0,81,0.00,,,0.00,0.000000,,2013-03-13 13:52:00,
2013-03-13 04:21:00,44.0,39.0,-100.00,ESE,123,4.0,6.0,82,0.00,,,0.00,0.000000,,2013-03-13 14:21:00,
2013-03-13 04:33:00,44.0,39.0,-100.00,ESE,123,4.0,6.0,82,0.00,,,0.00,0.000000,,2013-03-13 14:33:00,
2013-03-13 04:42:00,44.0,39.0,-100.00,ESE,123,4.0,6.0,82,0.00,,,0.00,0.000000,,2013-03-13 14:42:00,
2013-03-13 04:52:00,44.0,39.0,-100.00,ESE,123,4.0,6.0,82,0.00,,,0.00,0.000000,,2013-03-13 14:52:00,
2013-03-13 05:22:00,44.0,37.0,-100.00,ESE,119,6.0,9.0,76,0.00,,,0.00,0.000000,,2013-03-13 15:22:00,
2013-03-13 05:32:00,44.0,37.0,-100.00,ESE,119,6.0,9.0,76,0.00,,,0.00,0.000000,,2013-03-13 15:32:00,
2013-03-13 05:42:00,44.0,37.0,-100.00,ESE,119,6.0,9.0,76,0.00,,,0.00,0.000000,,2013-03-13 15:42:00,
2013-03-13 05:52:00,44.0,37.0,-100.00,ESE,119,6.0,9.0,76,0.00,,,0.00,0.000000,,2013-03-13 15:52:00,
2013-03-13 06:22:00,45.0,39.0,-100.00,ESE,113,4.0,8.0,79,0.00,,,0.00,0.000000,,2013-03-13 16:22:00,
2013-03-13 06:32:00,45.0,39.0,-100.00,ESE,113,4.0,8.0,79,0.00,,,0.00,0.000000,,2013-03-13 16:32:00,
2013-03-13 06:42:00,45.0,39.0,-100.00,ESE,113,4.0,8.0,79,0.00,,,0.00,0.000000,,2013-03-13 16:42:00,
2013-03-13 06:52:00,45.0,39.0,-100.00,ESE,113,4.0,8.0,79,0.00,,,0.00,0.000000,,2013-03-13 16:52:00,
2013-03-13 07:22:00,47.0,40.0,-100.00,East,94,6.0,7.0,76,0.00,,,-99.99,7.000000,,2013-03-13 17:22:00,
2013-03-13 07:32:00,47.0,40.0,-100.00,East,94,6.0,7.0,76,0.00,,,-99.99,7.000000,,2013-03-13 17:32:00,
2013-03-13 07:42:00,47.0,40.0,-100.00,East,94,6.0,7.0,76,0.00,,,-99.99,7.000000,,2013-03-13 17:42:00,
2013-03-13 07:53:00,47.0,40.0,-100.00,East,94,6.0,7.0,76,0.00,,,-99.99,7.000000,,2013-03-13 17:53:00,
2013-03-13 08:22:00,59.0,41.0,-100.00,NNW,346,2.0,7.0,51,0.00,,,0.00,172.000000,,2013-03-13 18:22:00,
2013-03-13 08:33:00,59.0,41.0,-100.00,NNW,346,2.0,7.0,51,0.00,,,0.00,172.000000,,2013-03-13 18:33:00,
2013-03-13 08:42:00,59.0,41.0,-100.00,NNW,346,2.0,7.0,51,0.00,,,0.00,172.000000,,2013-03-13 18:42:00,
2013-03-13 08:51:00,59.0,41.0,-100.00,NNW,346,2.0,7.0,51,0.00,,,0.00,172.000000,,2013-03-13 18:51:00,
2013-03-13 09:22:00,63.0,42.0,-100.00,East,95,4.0,8.0,46,0.00,,,0.00,499.000000,,2013-03-13 19:22:00,
2013-03-13 09:32:00,63.0,42.0,-100.00,East,95,4.0,8.0,46,0.00,,,0.00,499.000000,,2013-03-13 19:32:00,
2013-03-13 09:42:00,63.0,42.0,-100.00,East,95,4.0,8.0,46,0.00,,,0.00,499.000000,,2013-03-13 19:42:00,
2013-03-13 09:52:00,63.0,42.0,-100.00,East,95,4.0,8.0,46,0.00,,,0.00,499.000000,,2013-03-13 19:52:00,
2013-03-13 10:22:00,65.0,40.0,-100.00,NW,324,7.0,13.0,40,0.00,,,0.00,758.000000,,2013-03-13 20:22:00,
2013-03-13 10:32:00,65.0,40.0,-100.00,NW,324,7.0,13.0,40,0.00,,,0.00,758.000000,,2013-03-13 20:32:00,
2013-03-13 10:42:00,65.0,40.0,-100.00,NW,324,7.0,13.0,40,0.00,,,0.00,758.000000,,2013-03-13 20:42:00,
2013-03-13 10:52:00,65.0,40.0,-100.00,NW,324,7.0,13.0,40,0.00,,,0.00,758.000000,,2013-03-13 20:52:00,
2013-03-13 11:22:00,68.0,47.0,-100.00,North,354,5.0,13.0,47,0.00,,,0.00,933.000000,,2013-03-13 21:22:00,
2013-03-13 11:32:00,68.0,47.0,-100.00,North,354,5.0,13.0,47,0.00,,,0.00,933.000000,,2013-03-13 21:32:00,
2013-03-13 11:42:00,68.0,47.0,-100.00,North,354,5.0,13.0,47,0.00,,,0.00,933.000000,,2013-03-13 21:42:00,
2013-03-13 11:51:00,68.0,47.0,-100.00,North,354,5.0,13.0,47,0.00,,,0.00,933.000000,,2013-03-13 21:51:00,
2013-03-13 12:22:00,67.0,51.0,-100.00,North,352,10.0,20.0,56,0.00,,,-99.99,1036.000000,,2013-03-13 22:22:00,
2013-03-13 12:32:00,67.0,51.0,-100.00,North,352,10.0,20.0,56,0.00,,,-99.99,1036.000000,,2013-03-13 22:32:00,
2013-03-13 12:42:00,67.0,51.0,-100.00,North,352,10.0,20.0,56,0.00,,,-99.99,1036.000000,,2013-03-13 22:42:00,
2013-03-13 12:52:00,67.0,51.0,-100.00,North,352,10.0,20.0,56,0.00,,,-99.99,1036.000000,,2013-03-13 22:52:00,
2013-03-13 13:22:00,63.0,50.0,-100.00,North,0,9.0,20.0,63,0.00,,,0.00,884.000000,,2013-03-13 23:22:00,
2013-03-13 13:32:00,63.0,50.0,-100.00,North,0,9.0,20.0,63,0.00,,,0.00,884.000000,,2013-03-13 23:32:00,
2013-03-13 13:42:00,63.0,50.0,-100.00,North,0,9.0,20.0,63,0.00,,,0.00,884.000000,,2013-03-13 23:42:00,
2013-03-13 13:51:00,63.0,50.0,-100.00,North,0,9.0,20.0,63,0.00,,,0.00,884.000000,,2013-03-13 23:51:00,
2013-03-13 14:22:00,63.0,52.0,-100.00,NNW,347,6.0,20.0,68,0.00,,,0.00,285.000000,,2013-03-14 00:22:00,
2013-03-13 14:32:00,63.0,52.0,-100.00,NNW,347,6.0,20.0,68,0.00,,,0.00,285.000000,,2013-03-14 00:32:00,
2013-03-13 14:42:00,63.0,52.0,-100.00,NNW,347,6.0,20.0,68,0.00,,,0.00,285.000000,,2013-03-14 00:42:00,
2013-03-13 14:52:00,63.0,52.0,-100.00,NNW,347,6.0,20.0,68,0.00,,,0.00,285.000000,,2013-03-14 00:52:00,
2013-03-13 15:22:00,66.0,53.0,-100.00,North,350,7.0,17.0,62,0.00,,,0.00,599.000000,,2013-03-14 01:22:00,
2013-03-13 15:32:00,66.0,53.0,-100.00,North,350,7.0,17.0,62,0.00,,,0.00,599.000000,,2013-03-14 01:32:00,
2013-03-13 15:42:00,66.0,53.0,-100.00,North,350,7.0,17.0,62,0.00,,,0.00,599.000000,,2013-03-14 01:42:00,
2013-03-13 15:52:00,66.0,53.0,-100.00,North,350,7.0,17.0,62,0.00,,,0.00,599.000000,,2013-03-14 01:52:00,
2013-03-13 16:22:00,63.0,54.0,-100.00,NNW,333,8.0,19.0,73,0.00,,,0.00,467.000000,,2013-03-14 02:22:00,
2013-03-13 16:32:00,63.0,54.0,-100.00,NNW,333,8.0,19.0,73,0.00,,,0.00,467.000000,,2013-03-14 02:32:00,
2013-03-13 16:42:00,63.0,54.0,-100.00,NNW,333,8.0,19.0,73,0.00,,,0.00,467.000000,,2013-03-14 02:42:00,
2013-03-13 16:51:00,63.0,54.0,-100.00,NNW,333,8.0,19.0,73,0.00,,,0.00,467.000000,,2013-03-14 02:51:00,
2013-03-13 17:22:00,60.0,54.0,-100.00,North,350,7.0,16.0,80,0.00,,,0.00,236.000000,,2013-03-14 03:22:00,
2013-03-13 17:32:00,60.0,54.0,-100.00,North,350,7.0,16.0,80,0.00,,,0.00,236.000000,,2013-03-14 03:32:00,
2013-03-13 17:42:00,60.0,54.0,-100.00,North,350,7.0,16.0,80,0.00,,,0.00,236.000000,,2013-03-14 03:42:00,
2013-03-13 17:52:00,60.0,54.0,-100.00,North,350,7.0,16.0,80,0.00,,,0.00,236.000000,,2013-03-14 03:52:00,
2013-03-13 18:22:00,57.0,52.0,-100.00,NNE,23,5.0,12.0,84,0.00,,,0.00,79.000000,,2013-03-14 04:22:00,
2013-03-13 18:32:00,57.0,52.0,-100.00,NNE,23,5.0,12.0,84,0.00,,,0.00,79.000000,,2013-03-14 04:32:00,
2013-03-13 18:42:00,57.0,52.0,-100.00,NNE,23,5.0,12.0,84,0.00,,,0.00,79.000000,,2013-03-14 04:42:00,
2013-03-13 18:52:00,57.0,52.0,-100.00,NNE,23,5.0,12.0,84,0.00,,,0.00,79.000000,,2013-03-14 04:52:00,
2013-03-13 19:22:00,56.0,53.0,-100.00,North,10,4.0,8.0,91,0.00,,,0.00,12.000000,,2013-03-14 05:22:00,
2013-03-13 19:33:00,56.0,53.0,-100.00,North,10,4.0,8.0,91,0.00,,,0.00,12.000000,,2013-03-14 05:33:00,
2013-03-13 19:42:00,56.0,53.0,-100.00,North,10,4.0,8.0,91,0.00,,,0.00,12.000000,,2013-03-14 05:42:00,
2013-03-13 19:52:00,56.0,53.0,-100.00,North,10,4.0,8.0,91,0.00,,,0.00,12.000000,,2013-03-14 05:52:00,
2013-03-13 20:22:00,54.0,51.0,-100.00,SSE,147,3.0,5.0,89,0.00,,,0.00,0.000000,,2013-03-14 06:22:00,
2013-03-13 20:32:00,54.0,51.0,-100.00,SSE,147,3.0,5.0,89,0.00,,,0.00,0.000000,,2013-03-14 06:32:00,
2013-03-13 20:42:00,54.0,51.0,-100.00,SSE,147,3.0,5.0,89,0.00,,,0.00,0.000000,,2013-03-14 06:42:00,
2013-03-13 20:52:00,54.0,51.0,-100.00,SSE,147,3.0,5.0,89,0.00,,,0.00,0.000000,,2013-03-14 06:52:00,
2013-03-13 21:22:00,51.0,48.0,-100.00,ESE,113,3.0,4.0,90,0.00,,,0.00,0.000000,,2013-03-14 07:22:00,
2013-03-13 21:32:00,51.0,48.0,-100.00,ESE,113,3.0,4.0,90,0.00,,,0.00,0.000000,,2013-03-14 07:32:00,
2013-03-13 21:42:00,51.0,48.0,-100.00,ESE,113,3.0,4.0,90,0.00,,,0.00,0.000000,,2013-03-14 07:42:00,
2013-03-13 21:52:00,51.0,48.0,-100.00,ESE,113,3.0,4.0,90,0.00,,,0.00,0.000000,,2013-03-14 07:52:00,
2013-03-13 22:21:00,47.0,46.0,-100.00,East,94,4.0,5.0,97,0.00,,,0.00,0.000000,,2013-03-14 08:21:00,
2013-03-13 22:32:00,47.0,46.0,-100.00,East,94,4.0,5.0,97,0.00,,,0.00,0.000000,,2013-03-14 08:32:00,
2013-03-13 22:41:00,47.0,46.0,-100.00,East,94,4.0,5.0,97,0.00,,,0.00,0.000000,,2013-03-14 08:41:00,
2013-03-13 22:51:00,47.0,46.0,-100.00,East,94,4.0,5.0,97,0.00,,,0.00,0.000000,,2013-03-14 08:51:00,
2013-03-13 23:22:00,48.0,47.0,-100.00,South,170,6.0,8.0,98,0.00,,,0.00,0.000000,,2013-03-14 09:22:00,
2013-03-13 23:32:00,48.0,47.0,-100.00,South,170,6.0,8.0,98,0.00,,,0.00,0.000000,,2013-03-14 09:32:00,
2013-03-13 23:42:00,48.0,47.0,-100.00,South,170,6.0,8.0,98,0.00,,,0.00,0.000000,,2013-03-14 09:42:00,
2013-03-13 23:51:00,48.0,47.0,-100.00,South,170,6.0,8.0,98,0.00,,,0.00,0.000000,,2013-03-14 09:51:00,